Location: Risskov
(56.1972°N, 10.2480°E)
Time: 22:33:18
(UTC+00:00)

BlueWalker 3 - Pass Details

Date: 30 November 2022
Orbit: 498 x 517 km, 53.2° (Epoch: 08 February)

Event Time Altitude Azimuth Distance (km) Brightness Sun altitude
Rises 16:32:19 0° 241° (WSW) 2,629 7.5 -13.2°
Reaches altitude 10° 16:34:35 10° 235° (SW) 1,740 5.9 -13.5°
Maximum altitude 16:38:20 43° 163° (SSE) 731 2.7 -14.0°
Enters shadow 16:40:31 21° 102° (ESE) 1,177 3.3 -14.3°
